Location: Appletree Creek
(38.7363°N, 122.6833°W)
Time: 09:54:19
(UTC+00:00)

USA 234 - Pass Details

Date: 18 September 2020
Orbit: 1102 x 1106 km, 123.0° (Epoch: 16 October)

Event Time Altitude Azimuth Distance (km) Brightness Sun altitude
Rises 12:44:49 0° 154° (SSE) 3,903 6.3 -14.4°
Reaches altitude 10° 12:47:25 10° 160° (SSE) 2,948 5.6 -13.9°
Maximum altitude 12:53:34 44° 231° (SW) 1,479 3.6 -12.8°
Drops below altitude 10° 12:59:45 10° 302° (WNW) 2,961 5.1 -11.6°
Sets 13:02:24 0° 309° (NW) 3,922 5.8 -11.1°
